This is the latest recevied weather packets stored in our database for station/object AK4NG. If no packets are shown the sender has not sent any weather packets the latest 10 day(s).
| Time | Temp. | Humidity | Pressure | Rain* | Wind** | Luminosity | Snow |
|---|---|---|---|---|---|---|---|
| 1777779919 | 11.11° C | 79% | 1018.4 hPa | 0 mm | - | 0 W/m² | - |
| 1777779616 | 11.11° C | 79% | 1018.4 hPa | 0 mm | - | 0 W/m² | - |
| 1777779314 | 11.11° C | 79% | 1018.2 hPa | 0 mm | - | 0 W/m² | - |
| 1777779011 | 11.67° C | 78% | 1018.5 hPa | 0 mm | - | 0 W/m² | - |
| 1777778710 | 11.67° C | 78% | 1018.4 hPa | 0 mm | - | 0 W/m² | - |
| 1777778408 | 12.22° C | 74% | 1018.3 hPa | 0 mm | - | 0 W/m² | - |
| 1777778105 | 12.22° C | 73% | 1018.2 hPa | 0 mm | - | 0 W/m² | - |
| 1777777801 | 12.22° C | 67% | 1018.3 hPa | 0 mm | - | 0 W/m² | - |
| 1777777498 | 12.22° C | 72% | 1018.2 hPa | 0 mm | - | 0 W/m² | - |
| 1777777195 | 12.22° C | 72% | 1018.4 hPa | 0 mm | - | 0 W/m² | - |
| 1777776891 | 12.78° C | 67% | 1018.4 hPa | 0 mm | - | 0 W/m² | - |
| 1777776589 | 12.22° C | 70% | 1018.3 hPa | 0 mm | - | 0 W/m² | - |
| 1777776285 | 12.22° C | 73% | 1018.2 hPa | 0 mm | - | 0 W/m² | - |
| 1777775983 | 12.22° C | 73% | 1018.1 hPa | 0 mm | - | 0 W/m² | - |
| 1777775679 | 12.22° C | 73% | 1018.1 hPa | 0 mm | - | 0 W/m² | - |
| 1777775376 | 12.22° C | 71% | 1018.1 hPa | 0 mm | - | 0 W/m² | - |
| 1777775071 | 12.22° C | 72% | 1017.9 hPa | 0 mm | - | 0 W/m² | - |
| 1777774768 | 12.78° C | 74% | 1017.8 hPa | 0 mm | - | 0 W/m² | - |
| 1777774464 | 12.78° C | 73% | 1017.9 hPa | 0 mm | - | 0 W/m² | - |
| 1777774161 | 12.78° C | 67% | 1018 hPa | 0 mm | - | 0 W/m² | - |
| 1777773859 | 12.78° C | 68% | 1017.9 hPa | 0 mm | - | 0 W/m² | - |
| 1777773555 | 12.78° C | 70% | 1017.9 hPa | 0 mm | - | 0 W/m² | - |
| 1777773252 | 12.78° C | 70% | 1017.8 hPa | 0 mm | - | 0 W/m² | - |
| 1777772948 | 12.78° C | 69% | 1017.6 hPa | 0 mm | - | 0 W/m² | - |
| 1777772646 | 12.78° C | 69% | 1017.6 hPa | 0 mm | - | 0 W/m² | - |
* Rain latest hour (hover to see other rain measurements)
** Current wind speed in m/s (hover to see current wind gust speed)